Wind_Speed
14 13 12 11 10 9 8 7 6 6 5 5 5 5 4 4 4 4 5 5 5 6 6 6 6 6 7 7 7 8 9 9 9 9 10 10 10 11 11 11 12 12 13
16 15 14 13 12 11 10 9 8 8 7 6 6 6 6 5 5 5 6 6 7 7 7 7 7 7 7 8 8 9 9 10 10 10 10 10 11 11 12 12 13 14 14
18 18 17 16 15 13 12 11 10 9 9 8 8 7 7 7 7 7 7 7 8 8 8 8 8 8 9 9 9 10 10 11 11 11 11 11 11 12 12 13 14 15 15
20 20 19 18 17 16 14 13 13 12 11 10 9 9 8 8 8 7 7 8 8 8 9 9 9 10 10 10 11 11 12 12 12 12 13 13 13 13 13 13 14 15 16
22 22 22 21 20 18 17 16 15 14 13 12 11 10 9 9 9 8 8 9 9 9 10 10 11 11 11 11 12 12 13 13 13 14 14 14 14 14 14 15 15 16 16
24 24 24 23 22 21 19 18 17 16 15 14 13 12 11 11 10 10 10 10 10 10 10 11 11 11 12 12 12 13 14 14 15 15 15 15 15 15 15 16 16 17 16
26 26 25 24 23 23 21 20 19 18 17 16 15 14 13 12 12 12 12 12 11 11 11 12 12 12 12 13 14 14 15 15 15 16 16 16 16 16 16 16 17 17 17
27 27 26 26 25 25 23 22 21 20 19 17 16 16 15 14 14 13 13 13 13 13 13 13 13 14 14 14 15 15 15 16 16 16 16 16 17 17 17 18 18 18 18
28 28 28 27 27 26 25 24 23 22 21 19 18 17 17 16 15 15 14 14 14 14 15 15 15 15 16 16 16 16 17 17 17 17 17 17 18 18 18 18 19 19 19
30 30 30 30 28 29 27 26 25 24 22 21 20 19 19 18 17 16 16 16 16 16 16 16 17 17 17 17 17 18 18 18 18 18 18 19 19 19 19 19 20 20 20
31 31 31 32 30 30 29 28 27 26 24 23 22 20 20 20 19 19 18 18 18 18 18 18 18 18 18 18 18 19 19 20 20 20 20 20 20 20 20 21 21 21 22
30 31 32 33 31 30 31 30 29 28 26 25 24 22 22 21 21 20 20 19 19 20 19 19 19 19 19 19 20 20 20 21 21 21 21 21 21 21 22 22 22 23 24
31 31 32 33 32 31 32 31 30 29 28 27 26 24 23 23 22 21 21 21 21 21 21 21 20 20 21 21 21 21 21 22 22 23 23 23 22 22 23 23 24 24 25
32 32 32 33 33 33 33 33 32 31 30 29 28 26 25 24 24 23 23 23 23 22 22 22 22 22 22 22 22 22 23 23 24 24 24 24 24 24 24 24 25 25 25
33 33 34 34 34 34 34 33 33 32 31 30 29 28 27 26 25 25 24 24 24 24 23 23 23 23 23 23 23 24 24 25 25 25 25 25 26 25 25 25 26 26 26
34 34 35 36 35 35 34 35 34 33 32 31 31 29 28 28 27 26 26 26 26 25 25 25 25 25 25 25 25 26 26 26 26 26 27 27 27 27 26 27 27 27 27
34 34 34 36 36 35 35 35 35 34 34 33 32 31 30 29 28 28 28 27 27 27 27 27 27 26 26 26 27 27 27 28 27 28 28 28 28 28 28 29 29 29 29
32 33 34 36 36 35 35 36 35 35 35 34 34 33 32 31 30 30 29 29 29 28 28 28 28 28 28 29 29 29 29 29 29 29 30 30 30 30 30 31 31 31 31
32 34 35 35 36 35 34 35 36 37 36 34 34 34 33 32 31 31 30 30 30 30 30 30 30 30 30 31 31 31 31 31 31 31 31 31 32 32 32 33 33 33 33
33 34 36 35 37 36 34 34 35 36 36 35 34 33 34 34 33 32 32 31 31 31 32 32 32 32 32 32 32 33 33 33 33 33 33 33 34 34 35 35 35 35 35
32 33 35 36 36 36 36 34 34 36 36 34 35 34 35 35 35 34 33 34 33 33 33 34 34 33 34 34 34 34 34 35 35 35 35 35 36 36 36 37 37 37 38
30 32 34 35 38 38 38 36 35 36 36 35 34 35 35 35 35 36 36 35 35 35 35 35 35 35 35 36 36 36 36 36 36 37 37 37 38 38 38 39 39 40 40
29 31 33 34 36 38 38 36 34 35 37 37 35 35 36 36 37 37 37 36 36 36 37 37 37 37 38 38 38 38 38 37 38 38 38 38 38 39 40 41 41 41 41
30 31 31 33 35 36 36 35 34 35 36 37 36 35 37 36 36 37 37 37 38 37 38 39 39 39 40 40 39 39 39 38 38 38 39 39 40 40 41 42 42 43 43
29 30 31 33 35 36 35 35 34 34 35 36 37 35 36 37 36 37 37 38 39 39 39 38 39 40 40 40 40 40 40 41 41 41 40 41 42 43 43 43 44 45 45
27 28 29 32 34 35 34 34 35 35 36 36 37 36 36 37 38 38 38 38 39 40 39 39 40 40 41 42 42 42 42 42 42 43 43 43 44 44 45 46 46 47 48
Wind_Direction
244 244 245 245 246 247 249 250 250 251 250 250 252 260 266 272 284 294 297 299 302 306 308 308 309 311 313 315 315 316 315 316 316 314 309 302 296 293 291 291 291 291 290
243 243 244 245 245 247 248 249 250 249 250 249 252 260 264 269 277 286 290 292 295 298 301 304 306 307 309 313 314 314 314 313 313 313 312 308 304 300 295 293 292 291 290
242 242 243 244 243 244 246 247 249 249 250 250 253 257 262 269 275 281 288 291 292 294 296 298 300 302 303 306 308 310 311 309 308 309 309 307 306 303 300 296 294 292 292
242 241 241 242 242 242 244 247 248 248 250 251 253 255 261 268 274 279 286 290 292 294 295 297 297 297 299 302 305 306 308 307 306 306 305 304 303 301 301 300 298 296 295
243 241 241 241 240 241 243 245 247 248 249 251 253 254 259 266 272 277 282 284 288 293 295 297 297 296 296 299 302 304 305 304 304 304 303 303 301 300 300 301 302 301 300
243 241 241 241 240 240 242 244 247 248 248 250 253 254 257 262 268 272 277 280 284 289 293 295 296 296 296 297 299 301 302 303 303 303 302 301 299 299 299 301 302 302 301
244 241 239 240 240 240 241 242 245 247 249 250 252 254 257 261 264 268 272 276 278 283 288 291 293 294 295 296 298 299 300 301 302 302 301 300 299 299 300 300 301 302 302
244 242 240 239 238 239 240 241 243 246 248 250 251 253 256 258 261 266 269 271 275 279 284 288 291 291 292 294 296 297 298 299 301 302 301 299 299 300 300 299 299 300 300
243 241 239 239 238 238 239 240 243 245 246 249 252 253 255 257 259 262 265 269 273 277 281 285 288 290 290 292 293 295 296 297 299 301 300 299 298 299 300 299 298 298 297
243 241 239 239 239 237 237 240 243 244 245 247 250 253 254 256 258 261 265 269 272 277 281 284 286 288 289 290 291 293 294 294 296 298 298 297 297 297 298 298 298 297 296
243 241 238 237 239 238 237 238 241 243 244 246 249 252 254 256 258 261 264 268 271 275 280 283 285 286 287 288 289 291 292 293 294 294 295 296 295 295 296 297 298 297 296
243 241 238 236 238 238 238 238 239 242 243 245 248 251 254 255 258 261 264 268 271 274 277 280 283 284 286 288 289 290 291 291 292 293 293 294 294 294 294 295 296 296 296
243 241 237 234 238 239 237 238 238 241 243 244 246 249 253 255 258 261 264 268 271 273 275 278 281 283 285 287 288 289 289 289 290 291 292 292 292 293 293 294 295 296 296
242 240 238 235 236 237 237 237 237 240 243 244 245 248 252 255 257 261 264 268 270 272 275 277 280 283 284 285 286 287 288 288 289 290 290 290 290 291 292 294 295 295 295
243 241 238 236 237 238 237 237 236 238 242 243 244 247 251 254 258 261 265 268 270 272 274 277 280 283 284 284 285 286 287 288 288 288 289 288 288 289 290 292 294 294 294
242 241 239 237 237 238 237 235 235 237 239 241 243 246 250 254 257 261 264 267 270 272 274 276 279 282 283 284 284 285 286 287 288 288 288 288 288 288 289 291 292 292 292
242 241 238 236 236 237 237 237 236 236 239 242 244 246 249 253 256 260 264 267 270 272 274 276 278 281 282 283 284 284 285 286 287 287 287 287 287 287 288 289 290 290 290
241 240 237 235 234 235 235 235 236 237 239 241 244 245 248 252 255 259 263 267 270 271 273 275 277 280 282 283 283 284 284 285 286 287 286 286 285 286 287 288 289 289 290
240 239 237 237 235 235 235 236 237 238 239 241 244 245 248 252 255 258 261 266 269 271 273 274 276 279 280 282 282 283 284 285 286 286 285 285 285 285 286 286 287 288 288
238 238 238 238 237 236 235 236 236 238 239 242 242 245 248 252 255 258 261 265 269 271 272 274 276 278 279 280 281 282 283 284 284 285 285 285 284 284 284 285 286 287 287
238 240 240 239 238 238 238 238 238 238 240 243 242 246 249 252 255 258 262 264 269 271 272 273 275 276 279 280 281 282 283 283 283 284 285 284 284 284 284 285 285 286 286
240 240 241 242 241 241 242 242 241 241 242 244 246 246 250 252 254 258 262 265 267 269 270 272 274 276 278 280 280 282 283 283 283 284 284 284 284 284 283 284 284 285 286
243 241 241 241 242 243 243 244 244 245 245 245 248 248 250 252 254 258 262 265 267 268 270 273 275 277 278 279 280 281 282 282 283 283 283 283 284 284 284 284 284 285 286
244 245 244 243 242 242 243 246 246 247 248 247 249 251 251 253 257 259 262 265 267 270 271 273 274 276 278 279 280 281 281 282 282 281 282 282 283 284 285 284 284 285 285
246 246 247 246 243 243 243 246 247 250 251 251 251 253 254 256 259 262 264 266 268 269 271 273 274 276 278 278 279 279 280 281 281 281 281 282 283 284 284 285 285 285 285
248 248 249 248 247 245 246 247 250 252 252 252 254 257 259 260 263 266 267 268 270 271 273 275 276 276 277 278 278 279 281 281 281 282 281 281 282 283 284 285 285 285 285
Height
5855 5856 5857 5857 5858 5859 5859 5860 5860 5861 5862 5862 5863 5863 5864 5864 5865 5865 5865 5865 5865 5866 5866 5866 5866 5866 5866 5866 5866 5866 5866 5865 5865 5864 5864 5864 5864 5864 5864 5863 5863 5863 5863
5852 5853 5854 5855 5856 5857 5857 5858 5859 5859 5860 5861 5861 5862 5862 5863 5863 5863 5864 5864 5864 5864 5864 5865 5865 5865 5865 5865 5865 5864 5864 5864 5863 5863 5863 5862 5862 5862 5861 5861 5861 5861 5860
5849 5850 5851 5852 5853 5854 5855 5855 5856 5857 5858 5859 5859 5860 5860 5861 5861 5862 5862 5862 5862 5862 5863 5863 5863 5863 5863 5863 5863 5863 5862 5862 5862 5861 5861 5860 5860 5859 5859 5859 5858 5858 5857
5845 5846 5847 5849 5850 5851 5852 5853 5854 5854 5855 5856 5857 5858 5858 5859 5859 5860 5860 5860 5860 5861 5861 5861 5861 5861 5861 5861 5861 5861 5860 5860 5860 5859 5859 5858 5858 5857 5857 5856 5855 5855 5854
5840 5841 5843 5845 5846 5847 5848 5850 5851 5852 5853 5854 5854 5855 5856 5857 5857 5858 5858 5858 5859 5859 5859 5859 5859 5859 5859 5859 5859 5859 5858 5858 5857 5857 5856 5856 5855 5854 5854 5853 5853 5852 5851
5835 5836 5838 5840 5841 5843 5845 5846 5847 5848 5849 5851 5852 5853 5853 5854 5855 5855 5856 5856 5856 5857 5857 5857 5857 5857 5857 5857 5856 5856 5856 5855 5855 5854 5853 5853 5852 5851 5851 5850 5850 5849 5848
5829 5831 5833 5835 5837 5838 5840 5842 5843 5845 5846 5847 5848 5849 5850 5851 5852 5853 5853 5854 5854 5854 5855 5855 5855 5854 5854 5854 5854 5853 5853 5852 5852 5851 5850 5850 5849 5848 5848 5847 5847 5846 5845
5823 5825 5827 5829 5831 5833 5835 5837 5839 5841 5842 5844 5845 5846 5847 5848 5849 5850 5850 5851 5851 5852 5852 5852 5852 5852 5852 5851 5851 5851 5850 5850 5849 5848 5847 5847 5846 5845 5845 5844 5843 5842 5842
5817 5819 5821 5823 5826 5828 5830 5832 5835 5836 5838 5840 5841 5842 5844 5845 5846 5846 5847 5848 5848 5849 5849 5849 5849 5849 5848 5848 5848 5847 5847 5846 5846 5845 5844 5844 5843 5842 5841 5841 5840 5839 5838
5810 5812 5815 5817 5819 5822 5825 5827 5829 5832 5834 5835 5837 5838 5840 5841 5842 5843 5844 5844 5845 5845 5845 5846 5846 5845 5845 5845 5844 5844 5844 5843 5842 5842 5841 5840 5840 5839 5838 5837 5836 5835 5834
5803 5805 5808 5811 5813 5816 5819 5822 5824 5826 5829 5831 5833 5834 5836 5837 5838 5839 5840 5841 5841 5841 5842 5842 5842 5842 5841 5841 5841 5840 5840 5839 5839 5838 5837 5837 5836 5835 5834 5833 5832 5831 5830
5796 5798 5801 5804 5807 5809 5813 5815 5818 5821 5823 5826 5828 5830 5831 5833 5834 5835 5836 5837 5837 5837 5838 5838 5838 5838 5837 5837 5837 5836 5836 5835 5835 5834 5833 5833 5832 5831 5830 5829 5828 5827 5826
5789 5791 5793 5797 5800 5803 5806 5809 5811 5815 5818 5820 5823 5825 5826 5828 5829 5831 5832 5832 5833 5833 5833 5834 5833 5833 5833 5833 5832 5832 5831 5831 5830 5829 5829 5828 5827 5826 5825 5825 5824 5823 5821
5781 5784 5786 5790 5793 5795 5799 5802 5805 5808 5812 5815 5817 5819 5821 5823 5824 5826 5827 5827 5828 5828 5829 5829 5829 5829 5828 5828 5828 5827 5827 5826 5825 5825 5824 5823 5822 5822 5821 5820 5819 5818 5816
5773 5776 5779 5782 5785 5788 5791 5795 5798 5802 5805 5808 5811 5814 5816 5817 5819 5820 5821 5822 5823 5823 5824 5824 5824 5824 5823 5823 5823 5822 5821 5821 5820 5819 5819 5818 5817 5817 5816 5815 5814 5812 5811
5765 5768 5771 5774 5778 5781 5784 5787 5791 5795 5798 5802 5805 5807 5810 5812 5813 5814 5816 5817 5817 5818 5818 5818 5818 5818 5818 5818 5817 5817 5816 5815 5815 5814 5813 5812 5812 5811 5810 5809 5808 5807 5806
5757 5760 5763 5767 5770 5774 5778 5781 5785 5788 5792 5795 5798 5801 5803 5805 5807 5809 5810 5811 5812 5812 5813 5813 5813 5813 5813 5812 5812 5811 5810 5810 5809 5808 5807 5806 5806 5805 5804 5803 5802 5801 5800
5750 5752 5755 5759 5763 5766 5771 5774 5778 5782 5785 5788 5791 5794 5797 5799 5800 5802 5804 5805 5805 5806 5806 5807 5807 5807 5807 5806 5805 5805 5804 5803 5803 5802 5801 5800 5799 5798 5797 5796 5795 5794 5793
5743 5746 5748 5752 5756 5760 5763 5768 5772 5775 5778 5781 5784 5787 5790 5792 5794 5795 5796 5798 5799 5799 5800 5800 5800 5800 5800 5800 5799 5798 5797 5797 5796 5795 5794 5793 5792 5791 5790 5789 5788 5787 5785
5737 5739 5742 5746 5750 5753 5757 5761 5765 5768 5772 5774 5777 5780 5783 5785 5787 5788 5789 5791 5792 5792 5793 5793 5793 5793 5793 5792 5792 5791 5790 5790 5789 5788 5787 5786 5785 5784 5783 5781 5780 5779 5777
5731 5734 5737 5740 5743 5747 5750 5754 5758 5761 5765 5767 5770 5772 5775 5777 5779 5781 5782 5783 5784 5785 5785 5786 5786 5786 5785 5785 5784 5783 5783 5782 5781 5780 5779 5778 5777 5776 5775 5773 5772 5771 5769
5725 5728 5731 5734 5737 5741 5744 5748 5751 5754 5758 5761 5763 5765 5768 5770 5771 5773 5774 5775 5776 5777 5777 5778 5778 5778 5777 5777 5776 5776 5775 5775 5773 5772 5771 5770 5768 5767 5766 5764 5763 5761 5760
5720 5723 5725 5727 5731 5734 5738 5742 5745 5748 5751 5754 5756 5759 5760 5762 5764 5765 5766 5767 5768 5769 5769 5770 5770 5770 5769 5768 5767 5767 5767 5766 5765 5764 5762 5761 5759 5758 5756 5755 5753 5752 5750
5715 5717 5720 5722 5725 5728 5732 5736 5739 5742 5744 5746 5749 5751 5752 5754 5756 5757 5758 5759 5760 5760 5761 5761 5761 5761 5760 5759 5758 5758 5758 5757 5756 5755 5754 5752 5750 5748 5747 5745 5743 5741 5740
5710 5712 5714 5717 5720 5723 5726 5730 5733 5735 5737 5739 5742 5743 5745 5747 5748 5749 5750 5751 5752 5752 5752 5752 5752 5751 5750 5750 5749 5748 5747 5747 5746 5745 5744 5742 5740 5738 5736 5735 5732 5730 5729
5705 5707 5709 5711 5714 5717 5720 5723 5725 5728 5730 5733 5735 5736 5737 5738 5740 5741 5741 5742 5742 5743 5743 5742 5742 5741 5741 5740 5739 5738 5737 5736 5735 5734 5734 5732 5730 5728 5725 5723 5721 5719 5717